Location: Vihti�l�
(61.3833°N, 23.0667°E)
Time: 04:29:44
(UTC+00:00)

Okean O Rocket - Pass Details

Date: 29 November 2020
Orbit: 623 x 644 km, 98.2° (Epoch: 19 January)

Event Time Altitude Azimuth Distance (km) Brightness Sun altitude
Rises 06:09:29 0° 16° (NNE) 2,956 4.9 -6.4°
Reaches altitude 10° 06:11:45 10° 11° (N) 2,046 4.0 -6.2°
Maximum altitude 06:16:01 47° 299° (WNW) 858 1.9 -5.7°
Drops below altitude 10° 06:20:17 10° 226° (SW) 2,044 4.1 -5.3°
Sets 06:22:32 0° 220° (SW) 2,951 5.0 -5.1°
